Погода в Боготоле

Погода в Боготоле : погода сейчас, прогноз погоды и архив. Всё, что Вы хотите узнать о погоде в Боготоле!

Хотите узнать прогноз погоды в Боготоле? Тогда Вам сюда: Погода в Боготоле

Поиск расширенной информации на нашем сайте:

Полезная информация: Что такое внутренний подтягивающий резистор.

Другие новости

Новости СМИ2

Главная страница сайта

Новости сайта

02.10.2013

Напоминаем, что на нашем новом сайте вы можете получить высокодетализированные прогнозы погоды по пунктам России, СНГ и мира (включающие важные для авиации метеовеличины, такие как направление и скорость ветра, видимость, явления погоды, количество и форма облачности, нижняя и верхняя граница облачности), а также ознакомиться с разнообразными материалами по авиационной метеорологии и подборкой полезных ссылок на эту тему.

Сайт Метеоцентр.Азия посвящён разработке технологий оптимизации авиаметеорологического обслуживания, включая проектирование и перспективное создание нескольких автоматизированных авиаметеорологических систем:
- система выпуска высокодетальных прогностических карт явлений погоды для нижнего воздушного пространства по России и ближнему зарубежью;
- система верификации прогнозов TAF (выпускаемых синоптиками официальных АМСГ РФ и ближнего зарубежья) и AUTOTAF (выпускаемых сайтом Метеоцентр.Азия) - выявление ошибок, онлайн-сопоставление с фактической погодой METAR, автоматическое внесение коррективов в прогнозы при резком отклонении фактической погоды от прогноза, подсчёт оправдываемости прогнозов по элементам и в целом;
- система обработки, анализа и отображения авиаметеорологической информации для применения провайдерами метеорологической информации.

Рекомендуем: автополив газона

Погода в Боготоле - сегодня

Время (UTC), дата Ветер
(°,м/с) 
Видим.   Явления Облачность Т
(°С)
Тd
(°С)
f(%) Тe
(°С)
Pmin
(гПа)
dP
(гПа)
Po
(мм)
O2
(г/м3)
Тmin Tmax R s Состояние
почвы
06 24.04.17 160 (Ю) 6{10}  20000 м    8/8 1000 м 
[Cu med, cong]
+13.5 +0.5 41 +13  1017.5  -1.6  737  283           
09 24.04.17 180 (Ю) 20000 м    6/3 1000 м верхняя 
[Cu hum|Ci fib]
+15.8 -0.7 32 +16  1016.3  -0.9  737  281           
12 24.04.17 250 (З) 20000 м    8/4 600 м кучево-дожд., средняя 
[Cb cap|Ac As]
+14.7 -1.7 32 +16  1016.5  737  282    +16.1       
15 24.04.17 190 (Ю) 20000 м    10/8 720 м кучево-дожд., средняя 
[Cb cap|As op]
+12.2 +0.3 44 +13  1018.4  1.6  738  284           
18 24.04.17 250 (З) 20000 м    ясно 
+8.9 +0.7 56 +10  1019.8  738  288           
21 24.04.17 240 (ЮЗ) 20000 м    ясно 
+5.5 +1 73 +6  1022.3  1.9  740  292           
00 25.04.17 270 (З) 20000 м    1/0 верхняя 
[Ci fib]
+5.9 +1.8 75 +7  1025.7  3.4  742  293  +4.5         
03 25.04.17 300 (СЗ) 20000 м    ясно 
+11.7 +0.9 47 +13  1027.3  2.2  744  287           
06 25.04.17 280 (З) 20000 м    ясно 
+16.4 -1 30 +17  1027.4  0.6  745  283           
09 25.04.17 250 (З) 20000 м    6/3 1000 м верхняя 
[Cu hum|Ci fib]
+17.5 -1.2 28 +18  1027.3  745  282           
12 25.04.17 260 (З) 20000 м    9/6 2000 м средняя, верхняя 
[Ac lent|Ci fib]
+16 -0.5 32 +17  1028  0.5  745  284    +18       
15 25.04.17 250 (З) 20000 м    8/0 верхняя 
[Ci sp]
+10.9 -0.1 47 +12  1029.3  0.7  746  289           
18 25.04.17 240 (ЮЗ) 20000 м    4/0 верхняя 
[Ci fib]
+8.9 -0.1 53 +10  1030.1  0.5  746  291           
21 25.04.17 тихо ()   20000 м    6/6 2000 м средняя 
[Ac trans]
+5.1 +0.6 73 +5  1030.4  -0.2  746  295           
00 26.04.17 150 (ЮВ) 20000 м    8/8 2000 м средняя 
[Ac trans]
+6 +2.2 77 +7  1030.5  0.2  746  294  +2.6         
03 26.04.17 140 (ЮВ) 20000 м    8/0 верхняя 
[Ci fib]
+14.6 +1.5 41 +15  1028.8  -0.6  745  285           
06 26.04.17 170 (Ю) 20000 м    8/0 верхняя 
[Ci fib]
+20.4 -0.5 25 +20  1025.9  -2.1  744  279           
09 26.04.17 170 (Ю) 20000 м    8/0 верхняя 
[Ci fib]
+22.9 +0.4 23 +23  1022.9  -2.6  742  276           
12 26.04.17 140 (ЮВ) 20000 м    9/0 верхняя 
[Ci fib]
+22 +1.4 26 +22  1020.7  -2.3  740  276    +23.3       
15 26.04.17 140 (ЮВ) 20000 м    4/0 верхняя 
[Ci fib]
+17.1 -0.9 29 +18  1020.1  -1.1  739  280           
18 26.04.17 180 (Ю) 20000 м    3/0 верхняя 
[Ci fib]
+14 +2.6 46 +15  1018.8  -1.6  738  283           
21 26.04.17 160 (Ю) 20000 м    ясно 
+10.8 +2.2 55 +12  1017.5  -1.6  737  285           
00 27.04.17 180 (Ю) 20000 м    6/0 верхняя 
[Ci fib]
+10.5 +2.9 59 +12  1016.7  -0.8  736  285  +9.3         
03 27.04.17 210 (ЮЗ) 20000 м    8/0 верхняя 
[Ci fib]
+20.5 -1 24 +21  1014.6  -0.9  736  276           
06 27.04.17 200 (Ю) 20000 м    9/0 верхняя 
[Ci sp]
+25.8 +0.6 19 +26  1012.2  -1.8  734  270           
Время (UTC), дата Ветер
(°,м/с) 
Видим.   Явления Облачность Т
(°С)
Тd
(°С)
f(%) Тe
(°С)
Pmin
(гПа)
dP
(гПа)
Po
(мм)
O2
(г/м3)
Тmin Tmax R s Состояние
почвы

Для получения пояснительной информации подведите курсор к названию столбца.

ПОГОДА в Боготоле - архив

Всё, что Вы хотите узнать о погоде в Боготоле - удобно и подробно!

Выберите нужную дату (начиная с 1 января 2015* года) и нажмите кнопку "Найти".
Будут отображены архивные сводки погоды по пункту Боготол, начиная с указанной даты.


Отображать данные в формате CSV (для использования в таблицах Excel)


Внимание! Наш архив погоды предназначен исключительно для личного некоммерческого использования в познавательных целях. Если Вам необходимы официальные справки о состоянии погоды (для производственных, юридических, коммерческих и т.п. целей), обращайтесь в органы Росгидромета.

*Примечание: данная дата относится к архиву по метеостанциям СССР (Россия, СНГ, Балтия).
Архив по метеостанциям Зарубежной Европы и Азии (кроме Китая) хранится 10 дней, по другим регионам земного шара (Китай, Африка, Америка, Австралия, Океания) - 1 день.

Боготол - район местоположения метеостанции


Название, широта, долгота, высота метеостанции:
Боготол 56.2°ш. 89.6°д. 291 м над ур. моря [Российская Федерация]

Дополнительная информация

В oтличие oт бoльшинства пoгoдных сайтoв мы публикуем пoдрoбную метеoинфoрмацию в детальнoм прoфессиoнальнoм фoрмате.

Характеристики температуры и влажнoсти вoздуха измеряются на высoте 2 м в тени вдали oт зданий и деревьев.
Скoрoсть ветра измеряется на высoте 10 м (на урoвне рoста челoвека скoрoсть ветра ниже в 1.5-2 раза). Если метеoстанция нахoдится в гoрoде или в лесу, тo скoрoсть ветра занижена на 2-4 м/с пo сравнению с oткрытым местoм. Скoрoсть ветра над акватoриями крупных рек и oзёр, а также на вершинах хoлмoв на 2-5 м/с выше, чем в oбычных услoвиях.
Атмoсфернoе давление в разных тoчках местнoсти мoжет значительнo oтличаться oт давления на метеoстанции, в зависимoсти oт услoвий рельефа (при пoдъёме на 10 м давление пoнижается примернo на 1 мм рт.ст.).